This is the latest recevied weather packets stored in our database for station/object N6GPM. If no packets are shown the sender has not sent any weather packets the latest 10 day(s).
| Time | Temp. | Humidity | Pressure | Rain* | Wind** | Luminosity | Snow |
|---|---|---|---|---|---|---|---|
| 1777766110 | 25° C | 49% | 1014 hPa | 0 mm | - | 397 W/m² | - |
| 1777765808 | 25° C | 49% | 1013.9 hPa | 0 mm | - | 420 W/m² | - |
| 1777765504 | 25° C | 50% | 1013.9 hPa | 0 mm | - | 422 W/m² | - |
| 1777765201 | 25.56° C | 49% | 1014.1 hPa | 0 mm | - | 430 W/m² | - |
| 1777764896 | 25.56° C | 49% | 1014 hPa | 0 mm | - | 420 W/m² | - |
| 1777764593 | 25.56° C | 49% | 1014 hPa | 0 mm | - | 450 W/m² | - |
| 1777764290 | 25.56° C | 51% | 1014 hPa | 0 mm | - | 470 W/m² | - |
| 1777763986 | 25.56° C | 51% | 1013.9 hPa | 0 mm | - | 482 W/m² | - |
| 1777763684 | 25.56° C | 50% | 1014.1 hPa | 0 mm | - | 502 W/m² | - |
| 1777763382 | 25.56° C | 50% | 1014.1 hPa | 0 mm | - | 521 W/m² | - |
| 1777763079 | 25.56° C | 48% | 1014.2 hPa | 0 mm | - | 511 W/m² | - |
| 1777762777 | 26.11° C | 48% | 1014.1 hPa | 0 mm | - | 531 W/m² | - |
| 1777762473 | 25.56° C | 50% | 1014.4 hPa | 0 mm | - | 551 W/m² | - |
| 1777762170 | 25.56° C | 48% | 1014.2 hPa | 0 mm | - | 484 W/m² | - |
| 1777761866 | 25.56° C | 49% | 1014.4 hPa | 0 mm | - | 446 W/m² | - |
| 1777761563 | 25.56° C | 50% | 1014.4 hPa | 0 mm | - | 442 W/m² | - |
| 1777761261 | 26.11° C | 51% | 1014.4 hPa | 0 mm | - | 406 W/m² | - |
| 1777760959 | 26.11° C | 50% | 1014.5 hPa | 0 mm | - | 525 W/m² | - |
| 1777760656 | 26.11° C | 51% | 1014.6 hPa | 0 mm | - | 588 W/m² | - |
| 1777760351 | 26.11° C | 51% | 1014.5 hPa | 0 mm | - | 673 W/m² | - |
| 1777760048 | 26.67° C | 50% | 1014.8 hPa | 0 mm | - | 564 W/m² | - |
| 1777759745 | 27.22° C | 51% | 1014.9 hPa | 0 mm | - | 659 W/m² | - |
| 1777759441 | 27.22° C | 47% | 1014.9 hPa | 0 mm | - | 685 W/m² | - |
| 1777759137 | 26.67° C | 48% | 1014.9 hPa | 0 mm | - | 627 W/m² | - |
| 1777758835 | 26.11° C | 48% | 1015.2 hPa | 0 mm | - | 622 W/m² | - |
* Rain latest hour (hover to see other rain measurements)
** Current wind speed in m/s (hover to see current wind gust speed)